Location: Four Corners
(38.2757°N, 122.4608°W)
Time: 04:50:31
(UTC+00:00)

Cosmos 1140 Rocket - Pass Details

Date: 08 December 2019
Orbit: 744 x 768 km, 74.1° (Epoch: 24 January)

Event Time Altitude Azimuth Distance (km) Brightness Sun altitude
Rises 02:21:09 0° 170° (S) 3,168 6.8 -17.5°
Reaches altitude 10° 02:23:44 10° 160° (SSE) 2,248 5.9 -18.0°
Enters shadow 02:27:42 30° 109° (ESE) 1,327 4.3 -18.8°
